FW9268 Weather Reports


Display with metric or nautical units.
time (UTC)temp
F
wind
direction
speed
MPH
gust
MPH
rain 1hr
in
rain 24hr
in
rain mn
in
humidity
%
barometer
mb
20260901053050 64 0 0.0 0.0 0.00 0.00 0.00 97 1022.8
20260901053013 64 302 0.0 0.0 0.00 0.00 0.00 98 1013.1
20260901051552 65 0 0.0 0.0 0.00 0.00 0.00 97 1022.8
20260901051512 65 302 0.0 0.0 0.00 0.00 0.00 98 1013.2
20260901050053 65 0 0.0 0.0 0.00 0.00 0.00 97 1023.0
20260901050008 65 302 0.0 0.0 0.00 0.00 0.00 97 1013.2
20260901044548 65 0 0.0 0.0 0.00 0.00 0.00 97 1022.8
20260901044509 65 302 0.0 0.0 0.00 0.00 0.00 97 1013.1
20260901043050 65 0 0.0 0.0 0.00 0.00 0.00 96 1022.8
20260901043006 65 302 0.0 0.0 0.00 0.00 0.00 97 1013.0
20260901041548 66 0 0.0 0.0 0.00 0.00 0.00 96 1022.7
20260901041503 66 302 0.0 0.0 0.00 0.00 0.00 97 1012.8
20260901040046 67 0 0.0 0.0 0.00 0.00 0.00 96 1022.7
20260901040003 67 302 0.0 0.0 0.00 0.00 0.00 97 1012.8
20260901034606 68 302 0.0 0.0 0.00 0.00 0.00 97 1012.6
20260901034553 68 0 0.0 0.0 0.00 0.00 0.00 96 1022.6
20260901033124 69 302 0.0 0.0 0.00 0.00 0.00 97 1012.6
20260901033050 69 0 0.0 0.0 0.00 0.00 0.00 96 1022.5
20260901031625 69 302 0.0 0.0 0.00 0.00 0.00 97 1012.8
20260901031549 69 0 0.0 0.0 0.00 0.00 0.00 96 1022.6
20260901030059 70 302 0.0 0.0 0.00 0.00 0.00 96 1012.6
20260901030051 70 0 0.0 0.0 0.00 0.00 0.00 96 1022.6
20260901024559 71 302 0.0 0.0 0.00 0.00 0.00 96 1012.6
20260901024543 71 0 0.0 0.0 0.00 0.00 0.00 96 1022.4
20260901023107 71 302 0.0 0.0 0.00 0.00 0.00 96 1012.5
20260901023052 71 0 0.0 0.0 0.00 0.00 0.00 95 1022.4
20260901021559 72 302 0.0 0.0 0.00 0.00 0.00 95 1012.4
20260901021551 72 0 0.0 0.0 0.00 0.00 0.00 95 1022.3
20260901020057 73 302 0.0 0.0 0.00 0.00 0.00 95 1012.4
20260901020046 73 0 0.0 0.0 0.00 0.00 0.00 94 1022.3
20260901014604 74 302 0.0 0.0 0.00 0.00 0.00 94 1012.3
20260901014550 74 0 0.0 0.0 0.00 0.00 0.00 93 1022.2
20260901013100 74 0 0.0 0.0 0.00 0.00 0.00 92 1022.0
20260901013056 74 302 0.0 0.0 0.00 0.00 0.00 92 1012.0
20260901011556 76 302 0.0 0.0 0.00 0.00 0.00 90 1012.0
20260901011540 76 0 0.0 0.0 0.00 0.00 0.00 90 1021.9
20260901010056 77 302 0.0 0.0 0.00 0.00 0.00 88 1011.7
20260901010052 77 0 0.0 0.0 0.00 0.00 0.00 88 1021.7
20260901004556 79 0 1.0 4.0 0.00 0.00 0.00 83 1021.6
20260901003102 80 312 0.0 6.0 0.00 0.00 0.00 83 1011.7
20260901003057 80 312 0.0 6.0 0.00 0.00 0.00 82 1021.6
20260901001613 80 292 0.0 5.0 0.00 0.00 0.00 82 1011.5
20260901001547 80 292 1.0 5.0 0.00 0.00 0.00 82 1021.3
20260901000053 81 275 0.0 3.0 0.00 0.00 0.00 79 1011.2
20260901000045 81 0 0.0 3.0 0.00 0.00 0.00 78 1021.0
20260831234553 82 275 0.0 3.0 0.00 0.00 0.00 77 1011.2
20260831234551 82 275 1.0 3.0 0.00 0.00 0.00 77 1021.0
20260831233052 83 275 0.0 1.0 0.00 0.00 0.00 74 1011.0
20260831233050 83 0 0.0 1.0 0.00 0.00 0.00 74 1020.9
20260831231554 84 275 1.0 4.0 0.00 0.00 0.00 72 1011.0
20260831231551 84 275 1.0 4.0 0.00 0.00 0.00 71 1020.9
20260831230052 85 290 0.0 6.0 0.00 0.00 0.00 69 1010.9
20260831230048 85 290 1.0 7.0 0.00 0.00 0.00 69 1020.7
20260831224555 86 250 2.0 8.0 0.00 0.01 0.00 69 1010.9
20260831224541 86 321 3.0 8.0 0.00 0.01 0.00 68 1020.8
20260831223049 86 266 2.0 6.0 0.00 0.01 0.00 72 1010.9
20260831223045 86 266 1.0 7.0 0.00 0.01 0.00 70 1020.7
20260831221558 86 273 2.0 7.0 0.00 0.01 0.00 71 1010.7
20260831221544 86 274 2.0 8.0 0.00 0.01 0.00 71 1020.5
20260831220050 85 0 1.0 6.0 0.00 0.01 0.00 71 1020.5
20260831220047 85 222 0.0 6.0 0.00 0.01 0.00 71 1010.6
20260831214555 86 231 2.0 7.0 0.00 0.05 0.00 71 1010.4
20260831214546 86 231 3.0 8.0 0.00 0.05 0.00 70 1020.3
20260831213055 86 198 3.0 8.0 0.00 0.05 0.00 71 1020.3
20260831213052 86 205 3.0 8.0 0.00 0.05 0.00 72 1010.4
20260831211604 86 232 3.0 8.0 0.00 0.05 0.00 72 1020.2
20260831211545 86 180 2.0 8.0 0.00 0.05 0.00 72 1010.3
20260831210047 86 197 2.0 10.0 0.00 0.05 0.00 74 1020.2
20260831210044 86 169 2.0 10.0 0.00 0.05 0.00 74 1010.3
20260831204553 86 218 3.0 6.0 0.00 0.05 0.00 73 1010.4
20260831204543 86 218 2.0 10.0 0.00 0.05 0.00 73 1020.2
20260831203052 85 257 2.0 9.0 0.00 0.05 0.00 75 1010.4
20260831203041 85 259 3.0 9.0 0.00 0.05 0.00 74 1020.0
20260831201558 84 192 5.0 9.0 0.00 0.05 0.00 75 1020.2
20260831201539 84 179 5.0 9.0 0.00 0.05 0.00 76 1010.4
20260831200045 84 240 3.0 7.0 0.00 0.05 0.00 76 1020.3
20260831200040 84 240 3.0 7.0 0.00 0.05 0.00 77 1010.6
20260831194628 83 203 4.0 11.0 0.00 0.05 0.00 78 1020.3
20260831194536 83 203 3.0 10.0 0.00 0.05 0.00 78 1010.6
20260831193049 83 205 4.0 8.0 0.00 0.05 0.00 79 1020.5
20260831193035 83 188 4.0 8.0 0.00 0.05 0.00 78 1010.8
20260831191544 83 209 3.0 10.0 0.00 0.05 0.00 78 1020.7
20260831190049 83 183 5.0 10.0 0.00 0.05 0.00 79 1020.6
20260831190034 83 182 5.0 9.0 0.00 0.05 0.00 79 1010.9
20260831184553 83 221 1.0 4.0 0.00 0.05 0.00 79 1020.4
20260831184532 83 218 1.0 5.0 0.00 0.05 0.00 79 1010.7
20260831183047 82 191 2.0 9.0 0.00 0.05 0.00 80 1020.4
20260831183031 82 194 2.0 9.0 0.00 0.05 0.00 81 1010.9
20260831181549 81 176 3.0 8.0 0.00 0.05 0.00 81 1020.4
20260831181529 81 176 2.0 6.0 0.00 0.05 0.00 82 1010.9
20260831180041 81 197 2.0 7.0 0.00 0.05 0.00 83 1020.4
20260831180029 81 197 2.0 6.0 0.00 0.05 0.00 83 1010.9
20260831174554 80 144 3.0 7.0 0.00 0.05 0.00 83 1020.4
20260831174527 80 144 4.0 7.0 0.00 0.05 0.00 84 1011.0
20260831173047 79 184 3.0 8.0 0.00 0.05 0.00 84 1020.7
20260831173022 79 184 3.0 7.0 0.00 0.05 0.00 84 1011.1
20260831171545 79 159 2.0 9.0 0.00 0.05 0.00 83 1020.9
20260831171521 79 159 3.0 8.0 0.00 0.05 0.00 84 1011.2
20260831170052 79 132 4.0 10.0 0.00 0.05 0.00 84 1020.6
20260831170024 79 140 5.0 10.0 0.00 0.05 0.00 84 1011.2
20260831164549 77 165 3.0 8.0 0.00 0.05 0.00 86 1020.5
20260831164523 77 165 3.0 8.0 0.00 0.05 0.00 86 1011.1
20260831163051 77 158 4.0 10.0 0.00 0.05 0.00 87 1020.4
20260831163016 77 156 4.0 9.0 0.00 0.05 0.00 87 1011.0
20260831161552 76 134 1.0 5.0 0.00 0.05 0.00 88 1020.5
20260831161512 76 134 1.0 5.0 0.00 0.05 0.00 89 1011.1
20260831160047 75 175 3.0 8.0 0.00 0.05 0.00 88 1020.5
20260831160009 75 174 4.0 7.0 0.00 0.05 0.00 89 1011.2
20260831154608 74 150 2.0 7.0 0.00 0.05 0.00 90 1020.7
20260831154506 74 148 2.0 7.0 0.00 0.05 0.00 90 1011.4
20260831153053 74 190 1.0 7.0 0.00 0.05 0.00 90 1020.6
20260831153004 74 188 1.0 5.0 0.00 0.05 0.00 91 1011.1
20260831151554 73 155 4.0 9.0 0.00 0.05 0.00 91 1020.2
20260831151502 73 172 4.0 9.0 0.00 0.05 0.00 91 1010.9
20260831150107 72 175 2.0 10.0 0.00 0.05 0.00 92 1010.7
20260831150043 72 175 3.0 10.0 0.00 0.05 0.00 92 1019.9
20260831144600 71 164 2.0 6.0 0.00 0.05 0.00 93 1020.0
20260831144555 71 167 2.0 6.0 0.00 0.05 0.00 94 1010.8
20260831143056 70 171 1.0 8.0 0.00 0.05 0.00 95 1011.0
20260831143050 70 171 2.0 8.0 0.00 0.05 0.00 94 1020.2
20260831141557 70 180 2.0 7.0 0.00 0.05 0.00 95 1010.9
20260831141549 70 159 1.0 9.0 0.00 0.05 0.00 95 1020.2
20260831140048 69 163 4.0 9.0 0.00 0.05 0.00 95 1010.6
20260831140044 69 140 4.0 9.0 0.00 0.05 0.00 95 1019.9
20260831134553 69 146 2.0 7.0 0.00 0.05 0.00 96 1010.6
20260831134546 69 127 2.0 7.0 0.00 0.05 0.00 95 1019.9
20260831133055 69 153 2.0 10.0 0.00 0.05 0.00 96 1019.8
20260831133046 69 153 1.0 10.0 0.00 0.05 0.00 96 1010.5
20260831131554 69 148 2.0 8.0 0.00 0.05 0.00 95 1019.6
20260831131547 69 148 1.0 7.0 0.00 0.05 0.00 96 1010.4
20260831130104 69 118 2.0 7.0 0.00 0.05 0.00 95 1019.7
20260831130046 69 119 3.0 8.0 0.00 0.05 0.00 96 1010.4
20260831124558 68 142 1.0 7.0 0.00 0.05 0.00 95 1019.6
20260831123054 68 152 2.0 9.0 0.00 0.05 0.00 96 1019.5
20260831123043 68 152 1.0 8.0 0.00 0.05 0.00 97 1010.3
20260831121556 68 146 1.0 7.0 0.00 0.05 0.00 96 1019.3
20260831121540 68 146 1.0 7.0 0.00 0.05 0.00 97 1010.3
20260831120054 67 0 2.0 7.0 0.00 0.05 0.00 96 1019.7
20260831120046 67 151 1.0 7.0 0.00 0.05 0.00 97 1010.4
20260831114556 67 147 1.0 5.0 0.00 0.05 0.00 96 1019.4
20260831114547 67 147 1.0 5.0 0.00 0.05 0.00 96 1010.2
20260831113055 68 0 1.0 7.0 0.00 0.05 0.00 95 1019.5
20260831113033 68 151 1.0 6.0 0.00 0.05 0.00 96 1010.3
20260831111553 68 144 1.0 7.0 0.00 0.05 0.00 96 1019.7
20260831111532 68 144 1.0 3.0 0.00 0.05 0.00 96 1010.5
20260831110053 68 152 2.0 5.0 0.00 0.05 0.00 96 1019.7
20260831110033 68 152 1.0 6.0 0.00 0.05 0.00 96 1010.5
20260831104548 68 111 1.0 6.0 0.00 0.05 0.00 96 1019.8
20260831104544 68 114 1.0 6.0 0.00 0.05 0.00 96 1010.6
20260831103055 68 167 0.0 5.0 0.00 0.05 0.00 95 1020.2
20260831103035 68 167 1.0 3.0 0.00 0.05 0.00 96 1010.9
20260831101552 68 134 0.0 8.0 0.00 0.05 0.00 96 1020.1
20260831101531 68 134 0.0 4.0 0.00 0.05 0.00 96 1010.8
20260831100110 68 147 1.0 5.0 0.00 0.05 0.00 96 1020.1
20260831100040 68 147 2.0 5.0 0.00 0.05 0.00 96 1010.9
20260831094542 68 132 1.0 7.0 0.00 0.05 0.00 96 1019.9
20260831094530 68 132 1.0 6.0 0.00 0.05 0.00 97 1010.7
20260831093048 68 0 0.0 5.0 0.00 0.05 0.00 96 1019.9
20260831093037 68 131 0.0 5.0 0.00 0.05 0.00 97 1010.6
20260831091550 68 188 1.0 7.0 0.00 0.05 0.00 96 1019.8
20260831091529 68 188 1.0 7.0 0.00 0.05 0.00 97 1010.6
20260831090043 68 144 0.0 7.0 0.00 0.05 0.00 96 1019.7
20260831090028 68 144 0.0 3.0 0.00 0.05 0.00 97 1010.4
20260831084608 68 144 1.0 4.0 0.00 0.05 0.00 96 1019.7
20260831084528 68 144 1.0 4.0 0.00 0.05 0.00 97 1010.5
20260831083045 68 148 1.0 6.0 0.00 0.05 0.00 96 1019.7
20260831083039 68 148 1.0 6.0 0.00 0.05 0.00 96 1010.5
20260831081554 69 0 1.0 7.0 0.00 0.05 0.00 96 1019.8
20260831081531 69 138 1.0 5.0 0.00 0.05 0.00 96 1010.6
20260831080100 69 123 3.0 8.0 0.00 0.05 0.00 95 1019.7
20260831080026 69 123 4.0 8.0 0.00 0.05 0.00 96 1010.5
20260831074558 69 0 2.0 7.0 0.00 0.05 0.00 95 1020.0
20260831074525 69 164 1.0 7.0 0.00 0.05 0.00 96 1010.8
20260831073048 69 0 2.0 8.0 0.00 0.05 0.00 96 1020.0
20260831073020 69 120 1.0 7.0 0.00 0.05 0.00 96 1010.7
20260831071601 69 159 2.0 8.0 0.00 0.05 0.00 96 1020.2
20260831071527 69 159 2.0 7.0 0.00 0.05 0.00 96 1011.0
20260831070050 69 136 1.0 9.0 0.00 0.05 0.00 96 1020.4
20260831070027 69 136 1.0 9.0 0.00 0.05 0.00 96 1011.2
20260831064543 69 154 3.0 9.0 0.00 0.05 0.00 96 1020.4
20260831064515 69 153 3.0 9.0 0.00 0.05 0.00 97 1011.2
20260831063043 69 163 2.0 10.0 0.00 0.05 0.00 96 1020.7
20260831063013 69 163 3.0 10.0 0.00 0.05 0.00 97 1011.4
20260831061545 69 165 4.0 8.0 0.00 0.05 0.00 96 1021.0
20260831061512 69 165 3.0 8.0 0.00 0.05 0.00 97 1011.7
20260831060100 70 165 4.0 9.0 0.00 0.05 0.00 96 1021.3
20260831060011 70 139 4.0 10.0 0.00 0.05 0.00 96 1012.1
20260831054544 70 142 4.0 9.0 0.00 0.05 0.00 96 1021.4
20260831054509 70 148 5.0 9.0 0.00 0.05 0.00 96 1012.3